User: anonymous   Login
Location: Unspecified
(0.0000°N, 0.0000°E)
Time: 09:14:30
(UTC+00:00)
Language:

WGS F3 (USA 211) - Orbit

View from above orbital plane
View from above orbital plane
View from above satellite
View from above satellite

Ground track
Ground track

The orbit data is extracted from the following two-line orbital elements,

1 36108U 09068A   17244.40329245 0.00000000  00000-0  00000-0 0    01
2 36108   0.0097 113.8919 0001615  25.1198 334.9129  1.00270000    08
Epoch (UTC): 01 September 2017 09:40:44
Eccentricity: 0.0001615
inclination: 0.0097°
perigee height: 35780 km
apogee height: 35793 km
right ascension of ascending node: 113.8919°
argument of perigee: 25.1198°
revolutions per day: 1.00270000
mean anomaly at epoch: 334.9129°
orbit number at epoch: 0

The dashed part of the orbit path shows where the satellite is in the earth's shadow,  

DLR